User: anonymous   Login
Location: Unspecified
(0.0000°N, 0.0000°E)
Time: 12:16:51
(UTC+00:00)
Language:

USA 245 - Orbit

View from above orbital plane
View from above orbital plane
View from above satellite
View from above satellite

Ground track
Ground track

The orbit data is extracted from the following two-line orbital elements,

1 39232U 13043A   17143.85721516 0.00013500  00000-0  14162-3 0    00
2 39232  97.8779 206.7021 0520360  79.6181 280.3817 14.79009605    04
Epoch (UTC): 23 May 2017 20:34:23
Eccentricity: 0.0520360
inclination: 97.8779°
perigee height: 267 km
apogee height: 997 km
right ascension of ascending node: 206.7021°
argument of perigee: 79.6181°
revolutions per day: 14.79009605
mean anomaly at epoch: 280.3817°
orbit number at epoch: 0

The dashed part of the orbit path shows where the satellite is in the earth's shadow,  

DLR